This is the latest recevied weather packets stored in our database for station/object WW3TRG. If no packets are shown the sender has not sent any weather packets the latest 10 day(s).
| Time | Temp. | Humidity | Pressure | Rain* | Wind** | Luminosity | Snow |
|---|---|---|---|---|---|---|---|
| 1777722021 | 7.22° C | 81% | 1012.2 hPa | 0 mm | - | 121 W/m² | - |
| 1777721719 | 7.22° C | 83% | 1012.5 hPa | 0 mm | - | 91 W/m² | - |
| 1777721418 | 6.67° C | 84% | 1012.4 hPa | 0 mm | - | 62 W/m² | - |
| 1777721115 | 6.67° C | 85% | 1012.7 hPa | 0 mm | - | 44 W/m² | - |
| 1777720812 | 6.67° C | 86% | 1012.6 hPa | 0 mm | - | 62 W/m² | - |
| 1777720510 | 6.67° C | 86% | 1012.6 hPa | 0 mm | - | 64 W/m² | - |
| 1777720207 | 6.11° C | 87% | 1012.4 hPa | 0 mm | - | 48 W/m² | - |
| 1777719904 | 6.67° C | 87% | 1012.5 hPa | 0 mm | - | 44 W/m² | - |
| 1777719602 | 6.11° C | 88% | 1012.6 hPa | 0 mm | - | 45 W/m² | - |
| 1777719299 | 6.67° C | 90% | 1012.2 hPa | 0 mm | - | 39 W/m² | - |
| 1777718996 | 6.67° C | 90% | 1012.2 hPa | 0 mm | - | 33 W/m² | - |
| 1777718693 | 6.67° C | 92% | 1012.1 hPa | 0 mm | - | 17 W/m² | - |
| 1777718391 | 6.67° C | 93% | 1012.1 hPa | 0 mm | - | 15 W/m² | - |
| 1777718088 | 6.67° C | 94% | 1012 hPa | 0 mm | - | 11 W/m² | - |
| 1777717785 | 6.67° C | 94% | 1012 hPa | 0 mm | - | 6 W/m² | - |
| 1777717482 | 6.67° C | 96% | 1012 hPa | 0 mm | - | 7 W/m² | - |
| 1777717179 | 6.67° C | 98% | 1011.9 hPa | 0 mm | - | 2 W/m² | - |
| 1777716877 | 6.67° C | 99% | 1011.9 hPa | 0 mm | - | 0 W/m² | - |
| 1777716575 | 6.67° C | 99% | 1011.8 hPa | 0 mm | - | 0 W/m² | - |
| 1777716274 | 7.22° C | 99% | 1011.7 hPa | 0 mm | - | 0 W/m² | - |
| 1777715972 | 7.78° C | 99% | 1011.3 hPa | 0 mm | - | 0 W/m² | - |
| 1777715669 | 7.22° C | 99% | 1011.2 hPa | 0.51 mm | - | 0 W/m² | - |
| 1777715367 | 7.22° C | 99% | 1011.2 hPa | 0.51 mm | - | 0 W/m² | - |
| 1777715064 | 7.22° C | 99% | 1010.9 hPa | 0 mm | - | 0 W/m² | - |
| 1777714761 | 7.22° C | 99% | 1011 hPa | 0 mm | - | 0 W/m² | - |
* Rain latest hour (hover to see other rain measurements)
** Current wind speed in m/s (hover to see current wind gust speed)